TimeChST,TemperatureF,Dew PointF,Humidity,Sea Level PressureIn,VisibilityMPH,Wind Direction,Wind SpeedMPH,Gust SpeedMPH,PrecipitationIn,Events,Conditions,WindDirDegrees,DateUTC
12:54 AM,81.0,77.0,88,29.75,10.0,SE,5.8,-,N/A,,Mostly Cloudy,130,2012-10-04 14:54:00
1:54 AM,81.0,75.9,85,29.74,10.0,ESE,4.6,-,N/A,,Partly Cloudy,120,2012-10-04 15:54:00
2:54 AM,82.0,75.9,82,29.73,10.0,SE,3.5,-,N/A,,Mostly Cloudy,140,2012-10-04 16:54:00
3:54 AM,82.0,75.9,82,29.73,10.0,SSE,8.1,-,N/A,,Mostly Cloudy,160,2012-10-04 17:54:00
4:54 AM,82.0,75.9,82,29.74,10.0,SSE,8.1,-,0.01,,Partly Cloudy,150,2012-10-04 18:54:00
5:54 AM,82.0,75.9,82,29.76,10.0,South,8.1,-,N/A,,Scattered Clouds,170,2012-10-04 19:54:00
6:54 AM,82.0,75.9,82,29.79,10.0,South,11.5,-,N/A,,Scattered Clouds,170,2012-10-04 20:54:00
7:54 AM,82.0,77.0,85,29.81,10.0,South,11.5,-,0.13,Rain,Light Rain,180,2012-10-04 21:54:00
8:54 AM,82.9,77.0,82,29.82,10.0,SSW,12.7,-,0.01,Rain,Light Rain,210,2012-10-04 22:54:00
9:54 AM,84.0,77.0,79,29.83,10.0,SSW,11.5,-,0.00,,Scattered Clouds,210,2012-10-04 23:54:00
10:54 AM,84.9,75.9,74,29.82,10.0,SSW,12.7,-,N/A,,Clear,200,2012-10-05 00:54:00
11:54 AM,86.0,75.9,72,29.80,10.0,SSW,10.4,-,N/A,,Scattered Clouds,200,2012-10-05 01:54:00
12:54 PM,86.0,77.0,74,29.79,10.0,South,10.4,-,N/A,,Scattered Clouds,190,2012-10-05 02:54:00
1:54 PM,84.9,77.0,77,29.78,10.0,South,6.9,-,N/A,,Scattered Clouds,180,2012-10-05 03:54:00
2:50 PM,82.4,77.0,84,29.72,5.0,South,16.1,25.3,0.02,,Overcast,180,2012-10-05 04:50:00
2:54 PM,80.1,75.9,87,29.79,4.0,South,19.6,25.3,0.02,,Overcast,190,2012-10-05 04:54:00
3:01 PM,78.8,75.2,89,29.72,1.8,SSW,9.2,25.3,0.04,,Mostly Cloudy,200,2012-10-05 05:01:00
3:09 PM,78.8,75.2,89,29.72,1.8,SW,6.9,-,0.09,,Mostly Cloudy,220,2012-10-05 05:09:00
3:15 PM,78.8,75.2,89,29.72,3.0,SW,6.9,-,0.11,,Mostly Cloudy,230,2012-10-05 05:15:00
3:54 PM,82.0,77.0,85,29.79,10.0,SSW,3.5,-,0.15,,Overcast,200,2012-10-05 05:54:00
4:01 PM,82.4,78.8,89,29.73,10.0,SSW,5.8,-,N/A,,Overcast,200,2012-10-05 06:01:00
4:11 PM,84.2,78.8,84,29.73,10.0,SSW,6.9,-,N/A,,Mostly Cloudy,200,2012-10-05 06:11:00
4:54 PM,82.0,77.0,85,29.81,9.0,SSW,11.5,-,0.01,Rain,Light Rain,210,2012-10-05 06:54:00
5:54 PM,80.1,75.9,87,29.80,10.0,SSW,8.1,-,0.03,,Mostly Cloudy,210,2012-10-05 07:54:00
6:54 PM,80.1,75.9,87,29.83,10.0,South,6.9,-,N/A,,Scattered Clouds,190,2012-10-05 08:54:00
7:54 PM,81.0,75.9,85,29.85,10.0,South,4.6,-,N/A,,Overcast,190,2012-10-05 09:54:00
8:54 PM,81.0,75.0,82,29.87,10.0,South,6.9,-,N/A,,Scattered Clouds,190,2012-10-05 10:54:00
9:54 PM,82.0,75.9,82,29.86,10.0,SE,3.5,-,0.01,,Scattered Clouds,140,2012-10-05 11:54:00
10:54 PM,82.9,75.9,79,29.85,10.0,SE,11.5,-,0.00,Rain,Light Rain,140,2012-10-05 12:54:00
11:49 PM,82.4,75.2,79,29.77,10.0,SE,15.0,20.7,0.00,,Overcast,140,2012-10-05 13:49:00
11:54 PM,82.0,75.9,82,29.83,10.0,SE,11.5,20.7,0.00,,Overcast,140,2012-10-05 13:54:00